This is the latest recevied weather packets stored in our database for station/object KC0AFB. If no packets are shown the sender has not sent any weather packets the latest 10 day(s).
| Time | Temp. | Humidity | Pressure | Rain* | Wind** | Luminosity | Snow |
|---|---|---|---|---|---|---|---|
| 1777995271 | 3.89° C | 54% | 1014.3 hPa | 0 mm | - | 236 W/m² | - |
| 1777994963 | 3.89° C | 54% | 1014.3 hPa | 0 mm | - | 177 W/m² | - |
| 1777994660 | 4.44° C | 52% | 1014.3 hPa | 0 mm | - | 154 W/m² | - |
| 1777994359 | 3.89° C | 57% | 1014.2 hPa | 0 mm | - | 216 W/m² | - |
| 1777994050 | 3.89° C | 58% | 1014.2 hPa | 0 mm | - | 151 W/m² | - |
| 1777993748 | 4.44° C | 56% | 1014.3 hPa | 0 mm | - | 183 W/m² | - |
| 1777993444 | 4.44° C | 59% | 1014.3 hPa | 0 mm | - | 354 W/m² | - |
| 1777993139 | 3.89° C | 60% | 1014.5 hPa | 0 mm | - | 274 W/m² | - |
| 1777992837 | 3.89° C | 60% | 1014.4 hPa | 0 mm | - | 220 W/m² | - |
| 1777992534 | 3.89° C | 60% | 1014.5 hPa | 0 mm | - | 233 W/m² | - |
| 1777992233 | 3.89° C | 61% | 1014.3 hPa | 0 mm | - | 219 W/m² | - |
| 1777991930 | 3.33° C | 61% | 1014.1 hPa | 0 mm | - | 191 W/m² | - |
| 1777991627 | 3.89° C | 60% | 1014.1 hPa | 0 mm | - | 175 W/m² | - |
| 1777991324 | 3.89° C | 61% | 1014.2 hPa | 0 mm | - | 193 W/m² | - |
| 1777991022 | 3.33° C | 61% | 1014.1 hPa | 0 mm | - | 213 W/m² | - |
| 1777990719 | 3.89° C | 61% | 1014.1 hPa | 0 mm | - | 172 W/m² | - |
| 1777990416 | 3.89° C | 61% | 1014.2 hPa | 0 mm | - | 154 W/m² | - |
| 1777989809 | 3.89° C | 61% | 1013.9 hPa | 0 mm | - | 235 W/m² | - |
| 1777989506 | 3.33° C | 61% | 1014 hPa | 0 mm | - | 201 W/m² | - |
| 1777989202 | 3.33° C | 60% | 1013.9 hPa | 0 mm | - | 196 W/m² | - |
| 1777988899 | 3.33° C | 61% | 1013.7 hPa | 0 mm | - | 175 W/m² | - |
| 1777988596 | 3.33° C | 62% | 1013.8 hPa | 0 mm | - | 187 W/m² | - |
| 1777988292 | 3.33° C | 62% | 1013.8 hPa | 0 mm | - | 161 W/m² | - |
| 1777987989 | 3.33° C | 63% | 1013.9 hPa | 0 mm | - | 151 W/m² | - |
| 1777987685 | 2.78° C | 63% | 1013.6 hPa | 0 mm | - | 145 W/m² | - |
* Rain latest hour (hover to see other rain measurements)
** Current wind speed in m/s (hover to see current wind gust speed)